Location: Coupvray
(48.8929°N, 2.7967°E)
Time: 00:06:40
(UTC+00:00)

Cosmos 1241 Rocket - Pass Details

Date: 30 October 2020
Orbit: 929 x 1018 km, 65.8° (Epoch: 28 November)

Event Time Altitude Azimuth Distance (km) Brightness Sun altitude
Rises 20:06:46 0° 299° (WNW) 3,701 8.5 -35.6°
Reaches altitude 10° 20:10:20 10° 318° (NW) 2,770 7.5 -36.1°
Maximum altitude 20:14:34 18° 359° (N) 2,274 6.6 -36.8°
Enters shadow 20:15:08 18° 6° (N) 2,285 6.5 -36.8°
